Year,Month,Day,Hour,Minute,Value (Times are PST for temperature in C)
2017,08,01,00,00,14.20
2017,08,01,00,01,14.20
2017,08,01,00,02,14.20
2017,08,01,00,03,14.20
2017,08,01,00,04,14.20
2017,08,01,00,05,14.20
2017,08,01,00,06,14.20
2017,08,01,00,07,14.20
2017,08,01,00,08,13.80
2017,08,01,00,09,13.80
2017,08,01,00,10,13.80
2017,08,01,00,11,13.80
2017,08,01,00,12,13.90
2017,08,01,00,13,13.90
2017,08,01,00,14,14.00
2017,08,01,00,15,14.00
2017,08,01,00,16,14.10
2017,08,01,00,17,14.20
2017,08,01,00,18,14.20
2017,08,01,00,19,14.20
2017,08,01,00,20,14.30
2017,08,01,00,21,14.60
2017,08,01,00,22,14.60
2017,08,01,00,23,14.70
2017,08,01,00,24,14.70
2017,08,01,00,25,14.80
2017,08,01,00,26,14.80
2017,08,01,00,27,14.80
2017,08,01,00,28,14.80
2017,08,01,00,29,14.80
2017,08,01,00,30,14.80
2017,08,01,00,31,14.80
2017,08,01,00,32,14.80
2017,08,01,00,33,14.80
2017,08,01,00,34,14.80
2017,08,01,00,35,14.80
2017,08,01,00,36,14.80
2017,08,01,00,37,14.80
2017,08,01,00,38,14.80
2017,08,01,00,39,14.80
2017,08,01,00,40,14.70
2017,08,01,00,41,14.60
2017,08,01,00,42,14.60
2017,08,01,00,43,14.50
2017,08,01,00,44,14.50
2017,08,01,00,45,14.40
2017,08,01,00,46,14.40
2017,08,01,00,47,14.40
2017,08,01,00,48,14.40
2017,08,01,00,49,14.40
2017,08,01,00,50,14.30
2017,08,01,00,51,14.30
2017,08,01,00,52,14.30
2017,08,01,00,53,14.30
2017,08,01,00,54,14.30
2017,08,01,00,55,14.30
2017,08,01,00,56,14.40
2017,08,01,00,57,14.40
2017,08,01,00,58,14.40
2017,08,01,00,59,14.40
2017,08,01,01,00,14.50
2017,08,01,01,01,14.70
2017,08,01,01,02,14.90
2017,08,01,01,03,15.10
2017,08,01,01,04,15.30
2017,08,01,01,05,15.40
2017,08,01,01,06,15.50
2017,08,01,01,07,15.60
2017,08,01,01,08,15.60
2017,08,01,01,09,15.70
2017,08,01,01,10,15.80
2017,08,01,01,11,15.90
2017,08,01,01,12,16.00
2017,08,01,01,13,16.10
2017,08,01,01,14,16.20
2017,08,01,01,15,16.30
2017,08,01,01,16,16.30
2017,08,01,01,17,16.30
2017,08,01,01,18,16.40
2017,08,01,01,19,16.40
2017,08,01,01,20,16.40
2017,08,01,01,21,16.40
2017,08,01,01,22,16.40
2017,08,01,01,23,16.40
2017,08,01,01,24,16.40
2017,08,01,01,25,16.30
2017,08,01,01,26,16.30
2017,08,01,01,27,16.30
2017,08,01,01,28,16.30
2017,08,01,01,29,16.30
2017,08,01,01,30,16.30
2017,08,01,01,31,16.30
2017,08,01,01,32,16.20
2017,08,01,01,33,16.20
2017,08,01,01,34,16.20
2017,08,01,01,35,16.20
2017,08,01,01,36,16.20
2017,08,01,01,37,16.20
2017,08,01,01,38,16.20
2017,08,01,01,39,16.20
2017,08,01,01,40,16.20
2017,08,01,01,41,16.20
2017,08,01,01,42,16.20
2017,08,01,01,43,16.10
2017,08,01,01,44,16.00
2017,08,01,01,45,16.00
2017,08,01,01,46,15.90
2017,08,01,01,47,15.90
2017,08,01,01,48,15.90
2017,08,01,01,49,15.80
2017,08,01,01,50,15.70
2017,08,01,01,51,15.60
2017,08,01,01,52,15.50
2017,08,01,01,53,15.40
2017,08,01,01,54,15.30
2017,08,01,01,55,15.20
2017,08,01,01,56,15.20
2017,08,01,01,57,15.00
2017,08,01,01,58,14.90
2017,08,01,01,59,14.70
2017,08,01,02,00,14.60
2017,08,01,02,01,14.50
2017,08,01,02,02,14.30
2017,08,01,02,03,14.30
2017,08,01,02,04,14.30
2017,08,01,02,05,14.30
2017,08,01,02,06,14.30
2017,08,01,02,07,14.30
2017,08,01,02,08,14.30
2017,08,01,02,09,14.30
2017,08,01,02,10,14.30
2017,08,01,02,11,14.30
2017,08,01,02,12,14.20
2017,08,01,02,13,14.20
2017,08,01,02,14,14.10
2017,08,01,02,15,14.10
2017,08,01,02,16,14.10
2017,08,01,02,17,14.00
2017,08,01,02,18,13.90
2017,08,01,02,19,13.90
2017,08,01,02,20,13.90
2017,08,01,02,21,13.90
2017,08,01,02,22,13.90
2017,08,01,02,23,14.00
2017,08,01,02,24,14.00
2017,08,01,02,25,14.00
2017,08,01,02,26,14.10
2017,08,01,02,27,14.10
2017,08,01,02,28,14.10
2017,08,01,02,29,14.10
2017,08,01,02,30,14.10
2017,08,01,02,31,14.10
2017,08,01,02,32,14.20
2017,08,01,02,33,14.20
2017,08,01,02,34,14.20
2017,08,01,02,35,14.20
2017,08,01,02,36,14.20
2017,08,01,02,37,14.20
2017,08,01,02,38,14.20
2017,08,01,02,39,14.20
2017,08,01,02,40,14.20
2017,08,01,02,41,14.30
2017,08,01,02,42,14.30
2017,08,01,02,43,14.30
2017,08,01,02,44,14.40
2017,08,01,02,45,14.50
2017,08,01,02,46,14.60
2017,08,01,02,47,14.70
2017,08,01,02,48,14.70
2017,08,01,02,49,14.80
2017,08,01,02,50,14.80
2017,08,01,02,51,14.80
2017,08,01,02,52,14.80
2017,08,01,02,53,14.80
2017,08,01,02,54,14.80
2017,08,01,02,55,14.80
2017,08,01,02,56,14.80
2017,08,01,02,57,14.80
2017,08,01,02,58,14.80
2017,08,01,02,59,14.80
2017,08,01,03,00,14.80
2017,08,01,03,01,14.80
2017,08,01,03,02,14.80
2017,08,01,03,03,14.80
2017,08,01,03,04,14.80
2017,08,01,03,05,14.90
2017,08,01,03,06,14.90
2017,08,01,03,07,14.90
2017,08,01,03,08,14.90
2017,08,01,03,09,15.00
2017,08,01,03,10,15.00
2017,08,01,03,11,15.00
2017,08,01,03,12,15.00
2017,08,01,03,13,15.00
2017,08,01,03,14,15.00
2017,08,01,03,15,15.00
2017,08,01,03,16,15.00
2017,08,01,03,17,15.00
2017,08,01,03,18,15.00
2017,08,01,03,19,15.00
2017,08,01,03,20,15.00
2017,08,01,03,21,15.00
2017,08,01,03,22,15.00
2017,08,01,03,23,14.90
2017,08,01,03,24,14.90
2017,08,01,03,25,14.90
2017,08,01,03,26,14.90
2017,08,01,03,27,14.90
2017,08,01,03,28,14.90
2017,08,01,03,29,14.90
2017,08,01,03,30,14.90
2017,08,01,03,31,14.80
2017,08,01,03,32,14.80
2017,08,01,03,33,14.70
2017,08,01,03,34,14.60
2017,08,01,03,35,14.60
2017,08,01,03,36,14.60
2017,08,01,03,37,14.60
2017,08,01,03,38,14.60
2017,08,01,03,39,14.60
2017,08,01,03,40,14.60
2017,08,01,03,41,14.60
2017,08,01,03,42,14.60
2017,08,01,03,43,14.70
2017,08,01,03,44,14.70
2017,08,01,03,45,14.70
2017,08,01,03,46,14.70
2017,08,01,03,47,14.70
2017,08,01,03,48,14.70
2017,08,01,03,49,14.70
2017,08,01,03,50,14.80
2017,08,01,03,51,14.80
2017,08,01,03,52,14.80
2017,08,01,03,53,14.90
2017,08,01,03,54,15.00
2017,08,01,03,55,15.00
2017,08,01,03,56,15.10
2017,08,01,03,57,15.20
2017,08,01,03,58,15.20
2017,08,01,03,59,15.30
2017,08,01,04,00,15.30
2017,08,01,04,01,15.30
2017,08,01,04,02,15.40
2017,08,01,04,03,15.50
2017,08,01,04,04,15.50
2017,08,01,04,05,15.60
2017,08,01,04,06,15.70
2017,08,01,04,07,15.70
2017,08,01,04,08,15.80
2017,08,01,04,09,15.80
2017,08,01,04,10,15.90
2017,08,01,04,11,15.90
2017,08,01,04,12,15.90
2017,08,01,04,13,15.90
2017,08,01,04,14,15.90
2017,08,01,04,15,15.90
2017,08,01,04,16,15.90
2017,08,01,04,17,15.90
2017,08,01,04,18,15.90
2017,08,01,04,19,15.90
2017,08,01,04,20,15.90
2017,08,01,04,21,15.90
2017,08,01,04,22,15.90
2017,08,01,04,23,16.00
2017,08,01,04,24,16.00
2017,08,01,04,25,16.10
2017,08,01,04,26,16.10
2017,08,01,04,27,16.10
2017,08,01,04,28,16.10
2017,08,01,04,29,16.10
2017,08,01,04,30,16.10
2017,08,01,04,31,16.10
2017,08,01,04,32,16.10
2017,08,01,04,33,16.10
2017,08,01,04,34,16.10
2017,08,01,04,35,16.20
2017,08,01,04,36,16.20
2017,08,01,04,37,16.10
2017,08,01,04,38,16.10
2017,08,01,04,39,16.10
2017,08,01,04,40,16.10
2017,08,01,04,41,16.00
2017,08,01,04,42,16.00
2017,08,01,04,43,16.10
2017,08,01,04,44,16.10
2017,08,01,04,45,16.20
2017,08,01,04,46,16.30
2017,08,01,04,47,16.30
2017,08,01,04,48,16.30
2017,08,01,04,49,16.30
2017,08,01,04,50,16.30
2017,08,01,04,51,16.30
2017,08,01,04,52,16.30
2017,08,01,04,53,16.30
2017,08,01,04,54,16.30
2017,08,01,04,55,16.30
2017,08,01,04,56,16.40
2017,08,01,04,57,16.40
2017,08,01,04,58,16.40
2017,08,01,04,59,16.40
2017,08,01,05,00,16.40
2017,08,01,05,01,16.40
2017,08,01,05,02,16.40
2017,08,01,05,03,16.40
2017,08,01,05,04,16.40
2017,08,01,05,05,16.30
2017,08,01,05,06,16.30
2017,08,01,05,07,16.30
2017,08,01,05,08,16.30
2017,08,01,05,09,16.20
2017,08,01,05,10,16.20
2017,08,01,05,11,16.10
2017,08,01,05,12,16.10
2017,08,01,05,13,16.10
2017,08,01,05,14,16.10
2017,08,01,05,15,16.10
2017,08,01,05,16,16.00
2017,08,01,05,17,16.00
2017,08,01,05,18,16.00
2017,08,01,05,19,16.00
2017,08,01,05,20,16.00
2017,08,01,05,21,16.00
2017,08,01,05,22,16.00
2017,08,01,05,23,15.90
2017,08,01,05,24,15.90
2017,08,01,05,25,15.90
2017,08,01,05,26,15.90
2017,08,01,05,27,15.80
2017,08,01,05,28,15.80
2017,08,01,05,29,15.80
2017,08,01,05,30,15.80
2017,08,01,05,31,15.80
2017,08,01,05,32,15.80
2017,08,01,05,33,15.80
2017,08,01,05,34,15.80
2017,08,01,05,35,15.70
2017,08,01,05,36,15.70
2017,08,01,05,37,15.70
2017,08,01,05,38,15.70
2017,08,01,05,39,15.70
2017,08,01,05,40,15.70
2017,08,01,05,41,15.70
2017,08,01,05,42,15.70
2017,08,01,05,43,15.70
2017,08,01,05,44,15.60
2017,08,01,05,45,15.60
2017,08,01,05,46,15.60
2017,08,01,05,47,15.60
2017,08,01,05,48,15.60
2017,08,01,05,49,15.50
2017,08,01,05,50,15.50
2017,08,01,05,51,15.40
2017,08,01,05,52,15.40
2017,08,01,05,53,15.40
2017,08,01,05,54,15.40
2017,08,01,05,55,15.40
2017,08,01,05,56,15.40
2017,08,01,05,57,15.30
2017,08,01,05,58,15.20
2017,08,01,05,59,15.10
2017,08,01,06,00,15.00
2017,08,01,06,01,14.90
2017,08,01,06,02,14.90
2017,08,01,06,03,15.00
2017,08,01,06,04,15.00
2017,08,01,06,05,14.90
2017,08,01,06,06,14.80
2017,08,01,06,07,14.80
2017,08,01,06,08,14.80
2017,08,01,06,09,14.90
2017,08,01,06,10,15.00
2017,08,01,06,11,15.10
2017,08,01,06,12,15.10
2017,08,01,06,13,15.10
2017,08,01,06,14,14.90
2017,08,01,06,15,14.90
2017,08,01,06,16,14.80
2017,08,01,06,17,14.70
2017,08,01,06,18,14.60
2017,08,01,06,19,14.60
2017,08,01,06,20,14.50
2017,08,01,06,21,14.50
2017,08,01,06,22,14.40
2017,08,01,06,23,14.40
2017,08,01,06,24,14.40
2017,08,01,06,25,14.30
2017,08,01,06,26,14.30
2017,08,01,06,27,14.40
2017,08,01,06,28,14.40
2017,08,01,06,29,14.40
2017,08,01,06,30,14.30
2017,08,01,06,31,14.30
2017,08,01,06,32,14.30
2017,08,01,06,33,14.30
2017,08,01,06,34,14.30
2017,08,01,06,35,14.30
2017,08,01,06,36,14.30
2017,08,01,06,37,14.30
2017,08,01,06,38,14.20
2017,08,01,06,39,14.20
2017,08,01,06,40,14.10
2017,08,01,06,41,14.00
2017,08,01,06,42,14.00
2017,08,01,06,43,14.00
2017,08,01,06,44,14.00
2017,08,01,06,45,13.90
2017,08,01,06,46,13.80
2017,08,01,06,47,13.80
2017,08,01,06,48,13.80
2017,08,01,06,49,13.80
2017,08,01,06,50,13.80
2017,08,01,06,51,13.80
2017,08,01,06,52,13.80
2017,08,01,06,53,13.80
2017,08,01,06,54,13.80
2017,08,01,06,55,13.90
2017,08,01,06,56,13.90
2017,08,01,06,57,13.90
2017,08,01,06,58,13.90
2017,08,01,06,59,13.90
2017,08,01,07,00,13.90
2017,08,01,07,01,14.00
2017,08,01,07,02,14.00
2017,08,01,07,03,14.10
2017,08,01,07,04,14.10
2017,08,01,07,05,14.10
2017,08,01,07,06,14.20
2017,08,01,07,07,14.20
2017,08,01,07,08,14.20
2017,08,01,07,09,14.30
2017,08,01,07,10,14.30
2017,08,01,07,11,14.40
2017,08,01,07,12,14.40
2017,08,01,07,13,14.40
2017,08,01,07,14,14.50
2017,08,01,07,15,14.50
2017,08,01,07,16,14.60
2017,08,01,07,17,14.60
2017,08,01,07,18,14.70
2017,08,01,07,19,14.70
2017,08,01,07,20,14.70
2017,08,01,07,21,14.60
2017,08,01,07,22,14.60
2017,08,01,07,23,14.60
2017,08,01,07,24,14.60
2017,08,01,07,25,14.60
2017,08,01,07,26,14.60
2017,08,01,07,27,14.60
2017,08,01,07,28,14.60
2017,08,01,07,29,14.50
2017,08,01,07,30,14.50
2017,08,01,07,31,14.30
2017,08,01,07,32,14.30
2017,08,01,07,33,14.20
2017,08,01,07,34,14.10
2017,08,01,07,35,14.10
2017,08,01,07,36,14.20
2017,08,01,07,37,14.20
2017,08,01,07,38,14.30
2017,08,01,07,39,14.30
2017,08,01,07,40,14.30
2017,08,01,07,41,14.30
2017,08,01,07,42,14.30
2017,08,01,07,43,14.30
2017,08,01,07,44,14.30
2017,08,01,07,45,14.30
2017,08,01,07,46,14.30
2017,08,01,07,47,14.30
2017,08,01,07,48,14.40
2017,08,01,07,49,14.50
2017,08,01,07,50,14.50
2017,08,01,07,51,14.60
2017,08,01,07,52,14.60
2017,08,01,07,53,14.60
2017,08,01,07,54,14.70
2017,08,01,07,55,14.70
2017,08,01,07,56,14.80
2017,08,01,07,57,14.80
2017,08,01,07,58,14.80
2017,08,01,07,59,14.90
2017,08,01,08,00,14.90
2017,08,01,08,01,14.90
2017,08,01,08,02,15.00
2017,08,01,08,03,15.00
2017,08,01,08,04,15.10
2017,08,01,08,05,15.20
2017,08,01,08,06,15.30
2017,08,01,08,07,15.40
2017,08,01,08,08,15.50
2017,08,01,08,09,15.60
2017,08,01,08,10,15.70
2017,08,01,08,11,15.80
2017,08,01,08,12,16.00
2017,08,01,08,13,16.10
2017,08,01,08,14,16.20
2017,08,01,08,15,16.30
2017,08,01,08,16,16.30
2017,08,01,08,17,16.40
2017,08,01,08,18,16.40
2017,08,01,08,19,16.30
2017,08,01,08,20,16.30
2017,08,01,08,21,16.30
2017,08,01,08,22,16.30
2017,08,01,08,23,16.30
2017,08,01,08,24,16.30
2017,08,01,08,25,16.30
2017,08,01,08,26,16.40
2017,08,01,08,27,16.40
2017,08,01,08,28,16.50
2017,08,01,08,29,16.60
2017,08,01,08,30,16.60
2017,08,01,08,31,16.70
2017,08,01,08,32,16.70
2017,08,01,08,33,16.70
2017,08,01,08,34,16.80
2017,08,01,08,35,16.80
2017,08,01,08,36,16.80
2017,08,01,08,37,16.80
2017,08,01,08,38,16.80
2017,08,01,08,39,16.90
2017,08,01,08,40,16.90
2017,08,01,08,41,16.90
2017,08,01,08,42,16.80
2017,08,01,08,43,16.80
2017,08,01,08,44,16.80
2017,08,01,08,45,16.70
2017,08,01,08,46,16.70
2017,08,01,08,47,16.70
2017,08,01,08,48,16.70
2017,08,01,08,49,16.80
2017,08,01,08,50,16.80
2017,08,01,08,51,16.90
2017,08,01,08,52,16.90
2017,08,01,08,53,16.90
2017,08,01,08,54,17.00
2017,08,01,08,55,17.00
2017,08,01,08,56,17.00
2017,08,01,08,57,17.00
2017,08,01,08,58,16.90
2017,08,01,08,59,16.90
2017,08,01,09,00,16.90
2017,08,01,09,01,16.90
2017,08,01,09,02,16.80
2017,08,01,09,03,16.80
2017,08,01,09,04,16.80
2017,08,01,09,05,16.80
2017,08,01,09,06,16.70
2017,08,01,09,07,16.60
2017,08,01,09,08,16.60
2017,08,01,09,09,16.50
2017,08,01,09,10,16.50
2017,08,01,09,11,16.40
2017,08,01,09,12,16.40
2017,08,01,09,13,16.40
2017,08,01,09,14,16.40
2017,08,01,09,15,16.40
2017,08,01,09,16,16.40
2017,08,01,09,17,16.40
2017,08,01,09,18,16.40
2017,08,01,09,19,16.50
2017,08,01,09,20,16.50
2017,08,01,09,21,16.50
2017,08,01,09,22,16.60
2017,08,01,09,23,16.60
2017,08,01,09,24,16.60
2017,08,01,09,25,16.60
2017,08,01,09,26,16.60
2017,08,01,09,27,16.60
2017,08,01,09,28,16.60
2017,08,01,09,29,16.60
2017,08,01,09,30,16.60
2017,08,01,09,31,16.60
2017,08,01,09,32,16.60
2017,08,01,09,33,16.60
2017,08,01,09,34,16.60
2017,08,01,09,35,16.50
2017,08,01,09,36,16.50
2017,08,01,09,37,16.50
2017,08,01,09,38,16.50
2017,08,01,09,39,16.40
2017,08,01,09,40,16.40
2017,08,01,09,41,16.40
2017,08,01,09,42,16.40
2017,08,01,09,43,16.30
2017,08,01,09,44,16.20
2017,08,01,09,45,16.10
2017,08,01,09,46,16.10
2017,08,01,09,47,16.10
2017,08,01,09,48,16.10
2017,08,01,09,49,16.00
2017,08,01,09,50,16.00
2017,08,01,09,51,15.90
2017,08,01,09,52,15.90
2017,08,01,09,53,15.90
2017,08,01,09,54,15.90
2017,08,01,09,55,15.90
2017,08,01,09,56,15.90
2017,08,01,09,57,15.90
2017,08,01,09,58,15.90
2017,08,01,09,59,15.90
2017,08,01,10,00,15.90
2017,08,01,10,01,15.70
2017,08,01,10,02,15.60
2017,08,01,10,03,15.40
2017,08,01,10,04,15.30
2017,08,01,10,05,15.20
2017,08,01,10,06,15.10
2017,08,01,10,07,15.10
2017,08,01,10,08,15.10
2017,08,01,10,09,15.10
2017,08,01,10,10,15.20
2017,08,01,10,11,15.20
2017,08,01,10,12,15.30
2017,08,01,10,13,15.40
2017,08,01,10,14,15.50
2017,08,01,10,15,15.50
2017,08,01,10,16,15.60
2017,08,01,10,17,15.50
2017,08,01,10,18,15.50
2017,08,01,10,19,15.40
2017,08,01,10,20,15.40
2017,08,01,10,21,15.40
2017,08,01,10,22,15.40
2017,08,01,10,23,15.30
2017,08,01,10,24,15.30
2017,08,01,10,25,15.30
2017,08,01,10,26,15.30
2017,08,01,10,27,15.30
2017,08,01,10,28,15.40
2017,08,01,10,29,15.40
2017,08,01,10,30,15.50
2017,08,01,10,31,15.50
2017,08,01,10,32,15.60
2017,08,01,10,33,15.60
2017,08,01,10,34,15.60
2017,08,01,10,35,15.60
2017,08,01,10,36,15.70
2017,08,01,10,37,15.70
2017,08,01,10,38,15.80
2017,08,01,10,39,15.80
2017,08,01,10,40,15.90
2017,08,01,10,41,16.00
2017,08,01,10,42,16.20
2017,08,01,10,43,16.40
2017,08,01,10,44,16.50
2017,08,01,10,45,16.70
2017,08,01,10,46,16.80
2017,08,01,10,47,16.90
2017,08,01,10,48,17.00
2017,08,01,10,49,17.10
2017,08,01,10,50,17.20
2017,08,01,10,51,17.30
2017,08,01,10,52,17.30
2017,08,01,10,53,17.40
2017,08,01,10,54,17.50
2017,08,01,10,55,17.60
2017,08,01,10,56,17.80
2017,08,01,10,57,17.90
2017,08,01,10,58,18.10
2017,08,01,10,59,18.30
2017,08,01,11,00,18.30
2017,08,01,11,01,18.30
2017,08,01,11,02,18.30
2017,08,01,11,03,18.20
2017,08,01,11,04,18.00
2017,08,01,11,05,17.80
2017,08,01,11,06,17.70
2017,08,01,11,07,17.60
2017,08,01,11,08,17.60
2017,08,01,11,09,17.60
2017,08,01,11,10,17.60
2017,08,01,11,11,17.70
2017,08,01,11,12,17.80
2017,08,01,11,13,17.80
2017,08,01,11,14,17.80
2017,08,01,11,15,17.90
2017,08,01,11,16,18.00
2017,08,01,11,17,18.20
2017,08,01,11,18,18.40
2017,08,01,11,19,18.60
2017,08,01,11,20,18.80
2017,08,01,11,21,18.90
2017,08,01,11,22,19.10
2017,08,01,11,23,19.20
2017,08,01,11,24,19.40
2017,08,01,11,25,19.50
2017,08,01,11,26,19.50
2017,08,01,11,27,19.60
2017,08,01,11,28,19.60
2017,08,01,11,29,19.70
2017,08,01,11,30,19.80
2017,08,01,11,31,19.90
2017,08,01,11,32,19.90
2017,08,01,11,33,20.00
2017,08,01,11,34,20.10
2017,08,01,11,35,20.10
2017,08,01,11,36,20.00
2017,08,01,11,37,20.00
2017,08,01,11,38,20.00
2017,08,01,11,39,19.90
2017,08,01,11,40,19.90
2017,08,01,11,41,19.80
2017,08,01,11,42,19.80
2017,08,01,11,43,19.70
2017,08,01,11,44,19.60
2017,08,01,11,45,19.50
2017,08,01,11,46,19.50
2017,08,01,11,47,19.40
2017,08,01,11,48,19.30
2017,08,01,11,49,19.30
2017,08,01,11,50,19.30
2017,08,01,11,51,19.30
2017,08,01,11,52,19.40
2017,08,01,11,53,19.40
2017,08,01,11,54,19.40
2017,08,01,11,55,19.50
2017,08,01,11,56,19.60
2017,08,01,11,57,19.60
2017,08,01,11,58,19.60
2017,08,01,11,59,19.60
2017,08,01,12,00,19.70
2017,08,01,12,01,19.70
2017,08,01,12,02,19.80
2017,08,01,12,03,19.80
2017,08,01,12,04,19.90
2017,08,01,12,05,20.00
2017,08,01,12,06,20.10
2017,08,01,12,07,20.30
2017,08,01,12,08,20.30
2017,08,01,12,09,20.30
2017,08,01,12,10,20.40
2017,08,01,12,11,20.50
2017,08,01,12,12,20.60
2017,08,01,12,13,20.60
2017,08,01,12,14,20.70
2017,08,01,12,15,20.70
2017,08,01,12,16,20.70
2017,08,01,12,17,20.70
2017,08,01,12,18,20.70
2017,08,01,12,19,20.60
2017,08,01,12,20,20.60
2017,08,01,12,21,20.60
2017,08,01,12,22,20.60
2017,08,01,12,23,20.60
2017,08,01,12,24,20.70
2017,08,01,12,25,20.70
2017,08,01,12,26,20.70
2017,08,01,12,27,20.70
2017,08,01,12,28,20.70
2017,08,01,12,29,20.80
2017,08,01,12,30,20.80
2017,08,01,12,31,20.80
2017,08,01,12,32,20.80
2017,08,01,12,33,20.80
2017,08,01,12,34,20.80
2017,08,01,12,35,20.80
2017,08,01,12,36,20.80
2017,08,01,12,37,20.70
2017,08,01,12,38,20.50
2017,08,01,12,39,20.40
2017,08,01,12,40,20.20
2017,08,01,12,41,20.10
2017,08,01,12,42,19.90
2017,08,01,12,43,19.80
2017,08,01,12,44,19.70
2017,08,01,12,45,19.70
2017,08,01,12,46,19.80
2017,08,01,12,47,19.70
2017,08,01,12,48,19.60
2017,08,01,12,49,19.60
2017,08,01,12,50,19.60
2017,08,01,12,51,19.60
2017,08,01,12,52,19.50
2017,08,01,12,53,19.40
2017,08,01,12,54,19.20
2017,08,01,12,55,19.10
2017,08,01,12,56,19.10
2017,08,01,12,57,19.00
2017,08,01,12,58,18.90
2017,08,01,12,59,18.80
2017,08,01,13,00,18.60
2017,08,01,13,01,18.50
2017,08,01,13,02,18.40
2017,08,01,13,03,18.40
2017,08,01,13,04,18.40
2017,08,01,13,05,18.30
2017,08,01,13,06,18.30
2017,08,01,13,07,18.30
2017,08,01,13,08,18.40
2017,08,01,13,09,18.40
2017,08,01,13,10,18.50
2017,08,01,13,11,18.50
2017,08,01,13,12,18.40
2017,08,01,13,13,18.40
2017,08,01,13,14,18.40
2017,08,01,13,15,18.30
2017,08,01,13,16,18.30
2017,08,01,13,17,18.30
2017,08,01,13,18,18.30
2017,08,01,13,19,18.20
2017,08,01,13,20,18.20
2017,08,01,13,21,18.20
2017,08,01,13,22,18.20
2017,08,01,13,23,18.20
2017,08,01,13,24,18.20
2017,08,01,13,25,18.20
2017,08,01,13,26,18.20
2017,08,01,13,27,18.20
2017,08,01,13,28,18.20
2017,08,01,13,29,18.20
2017,08,01,13,30,18.20
2017,08,01,13,31,18.10
2017,08,01,13,32,18.00
2017,08,01,13,33,17.90
2017,08,01,13,34,17.90
2017,08,01,13,35,17.80
2017,08,01,13,36,17.90
2017,08,01,13,37,18.00
2017,08,01,13,38,18.00
2017,08,01,13,39,18.10
2017,08,01,13,40,18.20
2017,08,01,13,41,18.30
2017,08,01,13,42,18.30
2017,08,01,13,43,18.40
2017,08,01,13,44,18.40
2017,08,01,13,45,18.40
2017,08,01,13,46,18.50
2017,08,01,13,47,18.50
2017,08,01,13,48,18.60
2017,08,01,13,49,18.60
2017,08,01,13,50,18.60
2017,08,01,13,51,18.70
2017,08,01,13,52,18.80
2017,08,01,13,53,18.80
2017,08,01,13,54,18.90
2017,08,01,13,55,19.00
2017,08,01,13,56,19.20
2017,08,01,13,57,19.30
2017,08,01,13,58,19.40
2017,08,01,13,59,19.50
2017,08,01,14,00,19.50
2017,08,01,14,01,19.50
2017,08,01,14,02,19.40
2017,08,01,14,03,19.40
2017,08,01,14,04,19.30
2017,08,01,14,05,19.30
2017,08,01,14,06,19.20
2017,08,01,14,07,19.10
2017,08,01,14,08,19.10
2017,08,01,14,09,19.10
2017,08,01,14,10,18.90
2017,08,01,14,11,18.70
2017,08,01,14,12,18.50
2017,08,01,14,13,18.40
2017,08,01,14,14,18.20
2017,08,01,14,15,18.20
2017,08,01,14,16,18.10
2017,08,01,14,17,18.10
2017,08,01,14,18,18.10
2017,08,01,14,19,18.10
2017,08,01,14,20,18.10
2017,08,01,14,21,18.00
2017,08,01,14,22,18.00
2017,08,01,14,23,17.90
2017,08,01,14,24,17.90
2017,08,01,14,25,17.90
2017,08,01,14,26,17.80
2017,08,01,14,27,17.80
2017,08,01,14,28,17.80
2017,08,01,14,29,17.90
2017,08,01,14,30,17.90
2017,08,01,14,31,17.90
2017,08,01,14,32,17.90
2017,08,01,14,33,17.90
2017,08,01,14,34,17.90
2017,08,01,14,35,17.80
2017,08,01,14,36,17.80
2017,08,01,14,37,17.90
2017,08,01,14,38,17.90
2017,08,01,14,39,17.90
2017,08,01,14,40,17.90
2017,08,01,14,41,17.90
2017,08,01,14,42,17.90
2017,08,01,14,43,17.90
2017,08,01,14,44,17.90
2017,08,01,14,45,17.90
2017,08,01,14,46,17.90
2017,08,01,14,47,17.80
2017,08,01,14,48,17.80
2017,08,01,14,49,17.80
2017,08,01,14,50,17.80
2017,08,01,14,51,17.90
2017,08,01,14,52,17.90
2017,08,01,14,53,18.00
2017,08,01,14,54,18.00
2017,08,01,14,55,18.10
2017,08,01,14,56,18.10
2017,08,01,14,57,18.20
2017,08,01,14,58,18.20
2017,08,01,14,59,18.30
2017,08,01,15,00,18.30
2017,08,01,15,01,18.30
2017,08,01,15,02,18.40
2017,08,01,15,03,18.40
2017,08,01,15,04,18.50
2017,08,01,15,05,18.50
2017,08,01,15,06,18.50
2017,08,01,15,07,18.60
2017,08,01,15,08,18.60
2017,08,01,15,09,18.70
2017,08,01,15,10,18.70
2017,08,01,15,11,18.70
2017,08,01,15,12,18.80
2017,08,01,15,13,18.80
2017,08,01,15,14,18.80
2017,08,01,15,15,18.80
2017,08,01,15,16,18.80
2017,08,01,15,17,18.80
2017,08,01,15,18,18.80
2017,08,01,15,19,18.80
2017,08,01,15,20,18.80
2017,08,01,15,21,18.80
2017,08,01,15,22,18.90
2017,08,01,15,23,19.00
2017,08,01,15,24,19.10
2017,08,01,15,25,19.10
2017,08,01,15,26,19.20
2017,08,01,15,27,19.20
2017,08,01,15,28,19.20
2017,08,01,15,29,19.20
2017,08,01,15,30,19.20
2017,08,01,15,31,19.20
2017,08,01,15,32,19.20
2017,08,01,15,33,19.20
2017,08,01,15,34,19.20
2017,08,01,15,35,19.20
2017,08,01,15,36,19.20
2017,08,01,15,37,19.20
2017,08,01,15,38,19.20
2017,08,01,15,39,19.30
2017,08,01,15,40,19.40
2017,08,01,15,41,19.50
2017,08,01,15,42,19.60
2017,08,01,15,43,19.60
2017,08,01,15,44,19.50
2017,08,01,15,45,19.50
2017,08,01,15,46,19.40
2017,08,01,15,47,19.40
2017,08,01,15,48,19.40
2017,08,01,15,49,19.40
2017,08,01,15,50,19.40
2017,08,01,15,51,19.30
2017,08,01,15,52,19.30
2017,08,01,15,53,19.30
2017,08,01,15,54,19.20
2017,08,01,15,55,19.20
2017,08,01,15,56,19.10
2017,08,01,15,57,19.10
2017,08,01,15,58,19.10
2017,08,01,15,59,19.20
2017,08,01,16,00,19.20
2017,08,01,16,01,19.20
2017,08,01,16,02,19.20
2017,08,01,16,03,19.20
2017,08,01,16,04,19.30
2017,08,01,16,05,19.30
2017,08,01,16,06,19.40
2017,08,01,16,07,19.40
2017,08,01,16,08,19.50
2017,08,01,16,09,19.50
2017,08,01,16,10,19.50
2017,08,01,16,11,19.60
2017,08,01,16,12,19.60
2017,08,01,16,13,19.70
2017,08,01,16,14,19.80
2017,08,01,16,15,19.80
2017,08,01,16,16,19.90
2017,08,01,16,17,20.00
2017,08,01,16,18,20.10
2017,08,01,16,19,20.20
2017,08,01,16,20,20.30
2017,08,01,16,21,20.30
2017,08,01,16,22,20.30
2017,08,01,16,23,20.40
2017,08,01,16,24,20.40
2017,08,01,16,25,20.40
2017,08,01,16,26,20.50
2017,08,01,16,27,20.50
2017,08,01,16,28,20.50
2017,08,01,16,29,20.60
2017,08,01,16,30,20.60
2017,08,01,16,31,20.60
2017,08,01,16,32,20.60
2017,08,01,16,33,20.60
2017,08,01,16,34,20.70
2017,08,01,16,35,20.70
2017,08,01,16,36,20.70
2017,08,01,16,37,20.70
2017,08,01,16,38,20.80
2017,08,01,16,39,20.80
2017,08,01,16,40,20.80
2017,08,01,16,41,20.90
2017,08,01,16,42,20.90
2017,08,01,16,43,20.90
2017,08,01,16,44,20.90
2017,08,01,16,45,20.90
2017,08,01,16,46,21.00
2017,08,01,16,47,21.00
2017,08,01,16,48,21.00
2017,08,01,16,49,21.00
2017,08,01,16,50,21.00
2017,08,01,16,51,21.00
2017,08,01,16,52,21.00
2017,08,01,16,53,21.00
2017,08,01,16,54,21.10
2017,08,01,16,55,21.10
2017,08,01,16,56,21.10
2017,08,01,16,57,21.10
2017,08,01,16,58,21.10
2017,08,01,16,59,21.10
2017,08,01,17,00,21.10
2017,08,01,17,01,21.20
2017,08,01,17,02,21.20
2017,08,01,17,03,21.20
2017,08,01,17,04,21.20
2017,08,01,17,05,21.20
2017,08,01,17,06,21.20
2017,08,01,17,07,21.20
2017,08,01,17,08,21.20
2017,08,01,17,09,21.20
2017,08,01,17,10,21.20
2017,08,01,17,11,21.20
2017,08,01,17,12,21.20
2017,08,01,17,13,21.20
2017,08,01,17,14,21.10
2017,08,01,17,15,21.10
2017,08,01,17,16,21.10
2017,08,01,17,17,21.10
2017,08,01,17,18,21.10
2017,08,01,17,19,21.10